Location: Cheching
(60.0667°N, 164.2167°W)
Time: 10:51:36
(UTC+00:00)

NOAA 19 - Pass Details

Date: 25 January 2021
Orbit: 840 x 862 km, 99.2° (Epoch: 26 February)

Event Time Altitude Azimuth Distance (km) Brightness Sun altitude
Rises 04:22:27 0° 161° (SSE) 3,429 8.4 -10.7°
Reaches altitude 10° 04:24:49 10° 163° (SSE) 2,494 7.7 -11.0°
Maximum altitude 04:30:22 82° 251° (WSW) 873 5.4 -11.6°
Drops below altitude 10° 04:35:56 10° 340° (NNW) 2,496 7.7 -12.3°
Sets 04:38:19 0° 341° (NNW) 3,433 8.4 -12.6°
